Annette Island, AK

12:02 PM AKDT on August 21, 2017 (GMT -0800)
Annette Island

Weather History for PANT - December, 2012

Change the Weather History Date:

Tuesday, December 4, 2012

  Actual Average Record
Temperature  
Mean Temperature 37 °F 38 °F  
Max Temperature 39 °F 42 °F 50 °F (1962)
Min Temperature 35 °F 33 °F 0 °F (1995)
Degree Days  
Heating Degree Days 28 27  
Month to date heating degree days 110 108  
Since 1 July heating degree days 2236 2158  
Cooling Degree Days 0    
Month to date cooling degree days 0  
Year to date cooling degree days 7  
Moisture  
Dew Point 35 °F    
Average Humidity 0    
Maximum Humidity 0    
Minimum Humidity 0    
Precipitation  
Precipitation 0.36 in 0.37 in 3.76 in (1959)
Month to date precipitation 2.05 1.46  
Year to date precipitation 97.07 92.37  
Snow  
Snow T in 0.20 in 9.70 in (1954)
Month to date snowfall T 0.8  
Since 1 July snowfall T 4.4  
Snow Depth 0.00 in    
Sea Level Pressure  
Sea Level Pressure 29.24 in    
Wind  
Wind Speed 3 mph (ESE)    
Max Wind Speed 12 mph    
Max Gust Speed 17 mph    
Visibility 9 miles    
Events Rain , Snow    
T = Trace of Precipitation, MM = Missing Value Source: NWS Daily Summary

Daily Weather History Graph

Daily Weather History Graph

Search for Another Location

Airport or City:

Trip Planner

Search our weather history database for the weather conditions in past years. The results will help you decide how hot, cold, wet, or windy it might be!

Date:

Astronomy

Dec. 04, 2012 Rise Set
Actual Time 7:53 AM AKST 3:20 PM AKST
Civil Twilight 7:08 AM AKST 4:04 PM AKST
Nautical Twilight 6:21 AM AKST 4:51 PM AKST
Astronomical Twilight 5:37 AM AKST 5:35 PM AKST
Moon 9:57 PM AKST (12/4) 11:13 AM AKST (12/4)
Length of Visible Light 8h 55m
Length of Day
7h 27m
Waning Gibbous, 68% of the Moon is Illuminated
Dec 4
Waning Gibbous
Dec 6
Last Quarter
Dec 12
New
Dec 19
First Quarter
Dec 28
Full

Hourly Weather History & Observations

Time (AKST) Temp. Windchill Dew Point Humidity Pressure Visibility Wind Dir Wind Speed Gust Speed Precip Events Conditions
12:35 AM 39.2 °F 33.6 °F 35.6 °F 87% 29.16 in 10.0 mi ESE 8.1 mph - 0.01 in Rain Light Rain
12:44 AM 39.2 °F 33.6 °F 35.6 °F 87% 29.16 in 10.0 mi ESE 8.1 mph - 0.01 in   Overcast
12:53 AM 39.0 °F 33.4 °F 35.1 °F 86% 29.16 in 10.0 mi ESE 8.1 mph - 0.01 in Rain Light Rain
1:30 AM 39.2 °F 35.0 °F 35.6 °F 87% 29.13 in 10.0 mi ESE 5.8 mph - 0.01 in Rain Light Rain
1:53 AM 39.0 °F 35.7 °F 36.0 °F 89% 29.13 in 10.0 mi ESE 4.6 mph - 0.01 in   Overcast
2:46 AM 39.2 °F - 35.6 °F 87% 29.10 in 10.0 mi Calm Calm - 0.00 in Rain Light Rain
3:20 AM 37.4 °F - 35.6 °F 93% 29.08 in 10.0 mi Calm Calm - N/A   Overcast
3:53 AM 37.0 °F - 35.1 °F 93% 29.07 in 10.0 mi Calm Calm - 0.00 in Rain Light Rain
4:53 AM 37.0 °F 33.3 °F 36.0 °F 96% 29.04 in 10.0 mi NNW 4.6 mph - 0.01 in Rain Light Rain
5:53 AM 37.0 °F 33.3 °F 36.0 °F 96% 29.02 in 10.0 mi NNW 4.6 mph - 0.01 in Rain Light Rain
6:53 AM 37.0 °F 34.5 °F 36.0 °F 96% 29.03 in 10.0 mi North 3.5 mph - 0.02 in Rain Light Rain
7:53 AM 37.0 °F - 36.0 °F 96% 29.05 in 10.0 mi Calm Calm - 0.04 in Rain Light Rain
8:53 AM 36.0 °F - 35.1 °F 97% 29.08 in 9.0 mi Calm Calm - 0.06 in Rain Light Rain
9:41 AM 35.6 °F 31.7 °F 33.8 °F 93% 29.12 in 9.0 mi SSE 4.6 mph - 0.04 in Rain Light Rain
9:53 AM 35.1 °F - 34.0 °F 96% 29.14 in 7.0 mi Calm Calm - 0.05 in Rain Light Rain
10:04 AM 35.6 °F - 33.8 °F 93% 29.14 in 8.0 mi Calm Calm - 0.01 in Rain Light Rain
10:53 AM 36.0 °F 33.3 °F 35.1 °F 97% 29.18 in 10.0 mi SE 3.5 mph - 0.05 in Rain Light Rain
11:05 AM 35.6 °F 32.8 °F 35.6 °F 100% 29.18 in 10.0 mi SE 3.5 mph - 0.01 in Rain Light Rain
11:53 AM 37.0 °F 33.3 °F 35.1 °F 93% 29.21 in 10.0 mi SE 4.6 mph - 0.03 in Rain Light Rain
12:05 PM 37.4 °F - 35.6 °F 93% 29.22 in 10.0 mi Calm Calm - 0.00 in   Overcast
12:33 PM 37.4 °F 34.9 °F 35.6 °F 93% 29.23 in 10.0 mi SE 3.5 mph - 0.00 in Rain Light Rain
12:53 PM 36.0 °F 31.1 °F 35.1 °F 97% 29.25 in 6.0 mi SW 5.8 mph - 0.00 in Rain , Snow Light Rain
1:04 PM 35.6 °F 31.7 °F 33.8 °F 93% 29.26 in 2.0 mi Variable 4.6 mph - 0.04 in Snow Light Snow
1:10 PM 35.6 °F 32.8 °F 33.8 °F 93% 29.26 in 4.0 mi Variable 3.5 mph - 0.05 in Snow Light Snow
1:19 PM 35.6 °F - 33.8 °F 93% 29.26 in 9.0 mi Calm Calm - 0.06 in Rain Light Rain
1:53 PM 36.0 °F 32.1 °F 35.1 °F 97% 29.27 in 10.0 mi ESE 4.6 mph - 0.07 in Rain Light Rain
2:53 PM 36.0 °F 33.3 °F 35.1 °F 97% 29.29 in 9.0 mi ESE 3.5 mph - 0.00 in Rain Light Rain
3:49 PM 35.6 °F - 35.6 °F 100% 29.31 in 10.0 mi Calm Calm - 0.01 in   Overcast
3:53 PM 36.0 °F - 35.1 °F 97% 29.31 in 10.0 mi Calm Calm - 0.01 in   Mostly Cloudy
4:00 PM 35.6 °F - 35.6 °F 100% 29.31 in 10.0 mi Calm Calm - N/A   Mostly Cloudy
4:53 PM 36.0 °F - 35.1 °F 97% 29.32 in 10.0 mi Calm Calm - 0.00 in   Overcast
5:31 PM 37.4 °F 34.9 °F 35.6 °F 93% 29.32 in 10.0 mi SE 3.5 mph - N/A   Overcast
5:53 PM 37.9 °F 35.5 °F 35.1 °F 89% 29.34 in 10.0 mi SE 3.5 mph - N/A   Mostly Cloudy
6:13 PM 37.4 °F - 35.6 °F 93% 29.33 in 10.0 mi Calm Calm - N/A   Mostly Cloudy
6:53 PM 37.9 °F - 36.0 °F 93% 29.34 in 10.0 mi Calm Calm - 0.00 in Rain Light Rain
7:04 PM 37.4 °F - 35.6 °F 93% 29.34 in 10.0 mi Calm Calm - N/A   Scattered Clouds
7:21 PM 37.4 °F - 35.6 °F 93% 29.34 in 10.0 mi Calm Calm - N/A   Mostly Cloudy
7:53 PM 36.0 °F - 34.0 °F 93% 29.36 in 10.0 mi Calm Calm - N/A   Mostly Cloudy
8:06 PM 35.6 °F - 33.8 °F 93% 29.36 in 10.0 mi Calm Calm - N/A   Mostly Cloudy
8:16 PM 35.6 °F - 35.6 °F 100% 29.36 in 10.0 mi Calm Calm - N/A   Mostly Cloudy
8:53 PM 37.0 °F 34.5 °F 34.0 °F 89% 29.38 in 10.0 mi ESE 3.5 mph - N/A   Mostly Cloudy
9:25 PM 37.4 °F - 35.6 °F 93% 29.39 in 10.0 mi Calm Calm - N/A   Overcast
9:53 PM 36.0 °F - 33.1 °F 89% 29.40 in 10.0 mi Calm Calm - N/A   Partly Cloudy
10:29 PM 35.6 °F 32.8 °F 33.8 °F 93% 29.41 in 10.0 mi SE 3.5 mph - N/A   Mostly Cloudy
10:53 PM 37.0 °F 31.6 °F 34.0 °F 89% 29.43 in 10.0 mi ESE 6.9 mph - N/A   Mostly Cloudy
11:53 PM 37.9 °F 34.4 °F 34.0 °F 86% 29.45 in 10.0 mi SE 4.6 mph - N/A   Mostly Cloudy